Погода в Скиросе

Греция     38°51′51″N   24°33′12″E
темп.,
°C
ветер,
м/с
пор.,
м/с
влажн.,
%
обл.,
%
осадки,
мм/ч
давл.,
гПа
погр.,
м
8 марта, пн
пн823:00+10с11640 0.0 1022625
02:00+10ссв33672 0.0 1021615
05:00+9всв22686 0.0 1019423
08:00+10юв126714 0.0 1019599
11:00+11ююв336648 0.0 1019768
14:00+11ююв336774 0.0 1018577
17:00+12юв4469100 0.0 1016521
20:00+12юв4571100 0.0 1017549
9 марта, вт
вт923:00+12юв4472100 0.0 1017615
02:00+12вюв3370100 0.0 1016570
05:00+12всв3368100 0.0 1016613
08:00+12св336883 0.0 1017618
11:00+13св23611 0.0 1017920
14:00+14св33540 0.0 1017938
17:00+14ссв22500 0.0 1016713
20:00+13ссв23533 0.0 1017397
10 марта, ср
ср1023:00+13с225699 0.0 1017258
02:00+13ссз225999 0.0 1016335
05:00+13сз1163100 0.0 1014331
08:00+13з2265100 0.0 1014368
11:00+14ююз33554 0.0 1014462
14:00+15ююв456021 0.0 1012433
17:00+16ююв576761 0.0 1011349
20:00+13с578678 1.1 1012422
11 марта, чт
чт1123:00+13с788569 0.3 1014712
02:00+12ссв798585 1.4 1016718
05:00+10ссв141484100 1.3 1017874
08:00+10ссв11137197 1.4 10201166
11:00+10ссв12136976 0.0 10241112
14:00+10ссв9106738 0.0 10251284
17:00+10ссв89640 0.0 10241344
20:00+10ссв56570 0.0 10261159
12 марта, пт
пт1223:00+10ссв44540 0.0 1027984
02:00+10ссв22530 0.0 1026890
05:00+10ссв11540 0.0 1025676
08:00+10в22560 0.0 1025655
11:00+11вюв22580 0.0 1025881
14:00+11юв32560 0.0 1023689
17:00+12юв43570 0.0 1021486
20:00+11юв44600 0.0 1021455